Theta_e
314 315 315 315 315 314 315 316 316 315 313 312 312 312 313 313 313 311 311 315 311 308 310 310 309 309 310 310 306 307 306 307 310 305 303 304 302 305 302 304 303 302 300 298 301 299 296 312 311 307 312 316 316 317
314 314 315 314 314 314 314 315 315 314 312 311 311 312 312 313 312 311 314 317 315 311 309 312 313 313 312 311 310 310 307 305 308 306 307 305 302 303 302 297 308 300 305 302 302 302 312 314 313 315 316 316 317 316
314 314 314 314 314 314 314 314 315 313 311 310 311 311 312 312 312 311 314 314 314 311 311 312 310 314 316 315 316 310 312 310 311 312 309 307 301 306 300 300 302 305 307 303 303 306 308 309 312 314 317 316 317 317
313 314 314 314 314 314 314 314 314 313 310 309 310 311 312 312 311 309 315 314 313 311 306 309 314 312 315 315 314 314 313 314 315 313 310 309 305 310 304 305 304 307 308 305 305 309 311 312 314 315 315 317 316 317
313 314 314 314 313 313 314 314 313 312 309 309 310 311 311 311 310 313 318 316 315 309 304 308 312 314 315 315 314 314 313 312 312 309 308 305 311 308 310 306 303 307 303 301 302 311 310 312 316 317 316 316 318 318
313 313 313 313 313 313 313 313 313 311 309 309 310 311 310 310 310 314 311 316 317 314 308 305 312 313 315 317 315 313 314 313 312 310 309 314 311 308 303 300 307 308 309 309 305 309 309 311 314 318 316 318 319 319
313 313 313 313 313 313 313 313 313 311 309 309 310 311 310 310 311 309 308 312 309 315 309 306 307 314 315 316 316 315 313 315 312 313 311 312 311 310 307 303 309 310 310 311 313 312 310 315 312 318 317 318 319 320
313 313 312 312 312 313 313 313 312 310 309 309 310 310 310 309 309 312 316 311 311 311 310 305 307 309 316 313 312 319 315 316 314 315 314 311 312 308 301 308 310 309 310 310 312 314 312 314 316 317 317 317 317 317
313 313 312 312 312 312 313 313 311 309 309 310 310 310 312 312 312 315 310 310 317 312 306 307 305 304 316 315 316 315 316 308 316 310 312 312 308 304 307 308 307 309 309 310 312 314 314 312 314 315 314 313 313 317
313 312 312 312 312 312 313 311 310 309 308 308 311 311 308 313 312 314 313 311 310 311 309 306 312 307 312 313 313 312 314 312 305 310 316 308 308 311 313 310 311 312 313 314 310 308 310 310 312 311 311 313 312 311
312 312 311 311 312 312 312 310 308 308 307 308 308 308 311 309 313 311 306 305 307 304 309 311 310 310 315 309 311 314 310 311 303 306 306 306 305 309 313 310 313 316 315 314 313 313 312 309 307 307 308 310 311 312
312 311 311 311 312 312 310 308 308 306 307 305 306 309 311 308 305 301 301 304 303 304 309 308 310 313 313 319 311 311 307 307 300 312 306 302 307 313 312 312 314 313 311 311 312 310 309 309 309 308 308 309 310 312
312 311 311 311 312 311 309 308 307 308 306 308 306 304 305 302 293 294 294 299 303 308 310 311 308 313 314 314 312 309 303 303 312 304 304 308 311 313 314 314 312 312 310 310 311 311 309 308 309 309 308 310 311 311
311 311 311 311 311 309 308 307 308 309 306 302 299 291 296 296 297 298 300 305 309 313 311 311 309 309 314 308 309 301 307 308 299 299 301 309 313 314 315 314 312 310 309 309 308 310 311 310 311 313 312 311 310 309
310 310 311 310 309 309 308 308 309 308 304 300 302 294 298 302 302 302 305 305 308 314 310 308 310 310 308 306 307 306 300 297 302 303 311 313 315 316 316 314 312 310 308 307 308 309 310 312 314 310 310 310 309 309
311 310 308 309 308 308 307 309 308 306 303 301 302 300 304 301 299 301 303 304 311 311 313 310 306 304 304 307 302 301 298 298 304 313 316 317 317 318 318 317 314 312 310 308 309 309 311 311 311 311 310 310 311 309
309 305 308 308 308 307 308 306 305 299 298 297 300 304 303 302 301 303 305 306 312 309 305 306 300 301 311 304 302 309 305 308 313 315 319 319 318 319 320 321 315 312 310 310 310 309 310 311 311 312 311 314 313 310
305 308 309 308 307 306 306 305 301 298 295 300 299 302 301 302 301 303 306 307 307 307 308 303 309 302 301 300 305 309 310 314 318 316 321 321 321 322 322 323 318 313 311 310 311 310 310 309 309 309 311 313 312 310
307 307 308 308 308 305 299 299 301 295 298 302 303 303 302 302 304 306 307 309 309 311 309 307 302 301 302 307 307 313 313 313 313 315 321 322 322 322 323 323 319 316 313 312 310 308 308 310 309 309 309 311 310 309
308 308 308 308 307 303 297 299 304 298 298 301 301 300 301 302 305 306 306 307 307 307 305 304 303 306 307 311 314 313 317 318 317 316 317 318 321 323 323 323 319 318 315 311 310 304 309 309 309 309 307 308 309 309
307 307 308 308 304 302 299 301 301 303 302 300 303 302 301 304 303 304 304 309 307 306 305 308 309 311 314 315 316 315 317 318 315 317 320 319 324 322 324 322 322 318 315 311 308 308 306 308 309 309 308 307 308 310
305 308 305 305 300 301 300 304 302 303 300 301 301 302 300 300 301 303 308 306 305 308 309 310 311 312 312 315 315 319 319 321 323 319 310 313 323 319 317 321 318 316 317 313 311 309 308 308 309 310 309 308 307 308
307 305 302 301 298 296 296 305 298 300 295 299 302 299 300 301 304 308 303 305 307 311 312 312 314 317 315 316 319 320 321 322 319 318 321 320 321 322 321 320 319 317 315 312 314 313 309 302 307 308 309 309 308 308
306 303 299 297 297 294 301 298 300 298 299 298 297 297 301 304 308 305 301 304 309 313 314 316 315 314 317 318 315 315 319 321 319 320 321 319 316 316 317 318 318 318 316 314 314 313 312 310 303 308 308 307 307 307
294 295 296 290 300 297 296 297 298 298 296 299 297 299 303 308 304 303 304 309 312 313 315 319 322 318 313 314 316 318 324 321 317 316 317 319 317 314 312 313 314 314 315 313 313 313 312 311 310 308 307 306 306 306
290 297 293 296 296 295 296 294 296 297 297 297 299 305 308 304 299 299 307 313 314 315 317 320 319 318 316 316 316 321 319 318 320 315 316 318 315 312 310 309 308 310 315 316 314 312 311 311 308 307 306 304 298 305
289 294 299 303 301 299 297 299 301 299 297 297 301 301 301 297 298 306 313 317 318 322 318 318 318 316 316 319 322 323 321 317 315 316 320 319 316 316 312 308 308 312 315 315 315 313 310 309 308 307 306 306 306 306
296 296 293 297 297 300 296 297 297 297 300 306 305 299 298 299 303 312 317 321 321 320 320 320 320 318 320 322 322 321 319 316 317 311 311 309 314 313 313 313 313 298 314 314 313 312 312 310 309 307 306 306 306 307
295 299 297 294 295 297 297 297 299 303 308 308 303 302 304 312 316 315 316 320 321 318 316 315 316 319 320 321 323 323 320 313 313 311 310 307 306 309 312 312 312 312 312 311 293 303 309 310 310 309 308 308 309 309
296 300 296 295 294 295 300 303 303 306 307 306 307 307 308 309 312 317 315 316 315 314 316 316 316 316 314 317 320 322 320 317 315 315 312 310 310 313 312 312 312 312 312 311 311 309 295 305 301 309 308 310 310 310
300 298 295 296 296 300 303 305 306 306 305 305 306 304 304 307 310 313 313 314 314 315 315 314 314 314 314 314 315 318 314 315 317 317 316 316 318 315 312 312 314 313 313 312 311 310 309 308 310 309 308 308 307 303
297 296 295 294 297 303 305 303 303 302 303 303 302 304 304 305 304 309 313 314 313 312 310 312 313 312 315 316 317 319 308 318 316 317 315 313 316 316 314 314 314 313 312 311 311 311 309 309 310 309 308 307 307 307
297 297 298 297 297 299 303 302 302 302 304 303 304 305 305 305 303 308 314 316 314 312 312 313 315 317 318 318 318 317 311 320 310 294 295 295 297 308 316 315 314 313 312 311 311 310 309 308 309 307 307 307 307 307
Wind_Speed
7 7 7 7 7 8 8 8 6 4 5 8 9 11 13 14 15 8 3 5 6 3 4 1 0 0 2 1 4 6 6 3 1 2 4 3 5 5 7 4 8 10 8 9 6 10 14 18 10 11 6 4 7 10
8 7 6 6 6 6 7 6 4 2 4 6 8 10 11 12 14 11 1 2 4 5 6 2 4 6 4 5 5 3 5 3 5 2 1 3 3 4 7 9 4 5 7 9 8 12 14 8 4 4 6 8 10 12
8 8 6 6 6 5 5 5 3 1 2 5 7 9 10 11 12 10 4 4 4 3 5 5 5 4 4 7 7 4 3 3 4 5 4 3 4 4 5 5 8 7 5 9 15 11 16 18 17 14 6 11 14 14
9 8 6 6 6 5 5 4 2 0 2 4 6 8 10 10 10 9 3 4 4 3 5 6 3 3 3 2 4 7 2 2 1 4 4 3 4 2 6 9 9 8 8 10 14 14 14 13 15 19 20 18 21 20
10 9 7 7 6 5 4 3 2 1 2 4 6 7 9 10 9 6 2 3 4 6 5 2 4 5 5 5 5 6 8 7 4 4 4 4 3 4 3 4 3 10 10 8 11 20 17 20 22 25 23 23 22 22
10 9 8 7 6 6 4 4 4 2 3 4 6 7 8 8 8 5 5 3 3 5 5 3 4 6 4 4 5 6 6 5 4 4 5 2 4 4 3 4 1 5 8 9 11 12 17 21 22 26 22 21 20 23
10 10 9 8 6 6 5 5 5 3 3 5 6 7 7 6 6 4 6 5 3 4 4 3 5 6 2 4 4 4 4 3 4 3 3 3 1 4 2 3 14 18 13 11 18 18 17 22 15 23 20 24 23 23
10 9 9 7 6 6 7 7 6 4 4 6 7 8 8 6 7 4 3 5 6 5 4 4 3 6 2 4 4 1 3 4 5 2 2 3 2 1 3 9 16 17 17 17 15 16 17 19 20 20 16 18 21 21
10 10 10 8 7 7 7 7 6 5 5 7 9 7 4 4 3 4 4 5 3 5 3 3 4 4 2 2 1 4 2 4 3 3 1 3 4 1 9 16 15 15 12 16 16 16 12 14 16 14 13 14 17 18
10 10 10 9 8 8 7 6 4 5 7 8 5 4 3 3 4 5 6 4 5 4 4 5 1 3 4 1 3 3 2 1 4 3 0 4 3 4 11 9 10 12 14 15 17 14 16 15 18 18 16 16 12 12
10 11 10 9 8 8 8 6 3 5 3 2 2 1 4 1 3 3 3 4 3 5 5 3 3 1 2 4 1 1 0 1 4 5 4 2 2 8 9 9 9 14 15 16 15 16 16 16 16 15 16 16 15 18
11 11 10 9 9 9 8 5 1 2 1 2 2 2 2 3 3 4 4 3 5 2 5 5 4 1 4 2 4 4 2 3 2 2 3 3 3 8 9 11 13 13 15 16 17 15 15 15 15 14 14 14 14 16
12 12 11 10 10 11 9 5 2 2 1 2 3 3 2 3 2 6 6 4 4 5 6 6 6 3 4 4 2 3 5 3 0 4 2 2 3 5 7 9 12 14 15 16 17 15 14 15 15 14 14 13 14 14
13 12 11 10 12 12 9 6 3 2 2 3 3 3 6 6 5 3 4 2 3 2 6 5 4 4 2 5 1 4 2 2 4 3 2 4 0 4 5 7 10 14 15 15 16 16 17 15 14 16 15 14 13 15
13 11 11 13 15 12 9 7 5 1 2 3 4 6 7 4 2 3 4 4 4 1 4 4 3 4 5 3 3 1 3 4 4 2 1 3 4 3 4 6 10 11 13 12 13 14 16 18 16 15 15 14 15 15
11 10 4 17 15 13 9 6 2 0 1 3 5 5 3 4 3 3 6 6 5 3 2 4 3 4 5 3 6 6 3 5 3 1 1 3 5 6 2 4 7 9 10 11 11 13 14 16 17 12 13 14 14 15
9 2 17 18 16 12 6 1 2 3 3 4 6 5 5 4 4 4 3 4 1 5 6 3 5 5 1 4 4 3 2 3 3 3 2 2 4 5 4 1 4 6 8 10 11 12 14 14 13 15 18 18 15 15
2 10 20 20 11 6 1 1 2 4 6 7 6 2 4 5 6 5 4 4 4 4 4 5 1 6 4 3 3 5 4 3 1 4 1 3 5 5 4 2 1 3 6 8 10 11 12 14 13 12 15 16 17 14
10 12 20 17 6 3 3 3 2 3 7 3 5 5 4 6 7 8 7 4 4 4 5 4 6 5 6 4 3 1 2 3 4 4 2 5 4 4 5 4 3 1 4 6 8 8 8 10 10 11 11 11 11 13
17 18 19 11 1 2 5 3 3 4 4 2 3 5 4 5 4 5 7 7 6 5 6 6 9 6 5 2 1 3 2 3 3 4 3 5 4 5 4 3 3 2 3 4 5 6 7 7 8 9 9 10 11 11
8 8 11 3 1 1 2 2 5 3 2 4 2 3 4 5 6 6 7 7 8 6 9 8 8 8 4 4 3 3 3 5 6 4 4 3 4 3 3 4 6 3 3 3 5 5 4 7 7 8 9 9 9 11
4 10 3 1 2 3 4 4 3 1 3 3 3 4 4 5 6 7 5 8 10 9 8 8 7 7 6 8 7 7 5 5 6 6 5 4 4 4 3 3 4 4 1 3 3 4 5 5 7 6 7 8 8 9
9 3 3 6 6 4 3 2 5 4 4 3 3 3 4 3 3 3 6 7 9 10 9 8 9 8 8 8 6 8 8 7 7 6 4 6 5 2 3 3 4 3 2 4 1 2 4 1 2 6 6 6 8 8
1 6 5 4 5 3 3 5 4 3 3 4 4 4 4 4 4 5 6 6 7 3 5 7 7 7 6 7 8 8 8 7 6 5 3 3 3 3 1 2 3 2 1 3 1 1 2 4 4 6 6 6 7 8
2 3 4 3 4 4 6 5 6 5 5 6 3 5 3 3 4 5 5 3 4 5 5 6 4 5 6 5 4 4 4 4 5 4 4 1 2 2 3 3 3 4 3 3 2 0 2 2 4 5 7 8 9 8
2 5 4 6 3 5 4 3 5 6 4 3 5 2 1 4 5 5 2 1 2 3 3 4 4 4 6 5 5 2 5 2 4 5 6 2 1 1 4 4 5 5 3 1 2 2 2 2 4 5 7 5 3 7
4 5 4 2 2 1 4 4 3 4 4 5 3 4 4 5 4 1 1 1 1 3 3 2 1 2 3 3 5 3 4 2 1 4 3 1 2 1 0 2 3 5 3 2 0 1 3 3 3 4 5 6 6 7
3 3 7 4 5 4 5 4 4 5 4 2 3 6 4 3 3 3 3 2 2 3 2 2 1 3 1 3 6 7 5 1 3 3 3 2 2 2 3 4 5 3 2 3 4 3 3 3 3 4 5 6 6 6
4 4 4 6 5 5 6 6 5 3 2 2 4 3 1 2 1 1 3 1 2 4 4 4 3 2 1 3 4 4 3 4 10 14 12 7 6 6 5 5 6 5 5 6 7 7 5 4 4 4 3 4 4 3
5 5 5 5 6 7 5 5 5 5 5 6 6 7 7 7 5 2 4 4 4 5 6 5 4 4 4 2 3 6 4 2 5 10 8 8 8 7 8 7 6 6 5 5 6 7 2 5 4 6 3 2 1 2
2 5 5 6 6 6 7 8 8 8 9 10 9 10 11 9 8 7 7 8 7 7 7 7 7 6 6 5 3 6 5 6 12 11 6 8 5 6 8 7 7 5 5 4 5 6 6 6 5 3 3 3 0 5
5 8 5 6 8 5 4 7 8 9 9 9 11 11 11 11 12 9 8 8 9 9 9 9 9 8 6 5 4 3 6 4 7 6 4 6 7 6 9 8 7 6 6 6 4 5 5 6 3 4 5 4 3 3
6 6 7 7 5 5 5 6 5 6 7 8 8 9 9 11 15 10 6 6 9 9 9 8 7 7 7 6 6 5 6 6 4 5 2 7 8 3 6 7 7 8 8 6 5 5 5 3 2 2 2 2 3 3
Wind_Direction
261 272 300 317 320 326 330 337 351 4 14 8 5 3 4 3 1 329 61 10 330 326 100 233 16 77 154 273 350 56 218 145 12 356 316 38 287 33 271 326 303 298 316 294 292 295 277 12 345 353 17 342 351 345
248 259 288 298 303 316 323 334 345 2 16 5 1 359 2 1 358 335 9 24 328 270 26 318 301 304 298 354 321 64 53 48 24 294 33 279 286 290 324 298 158 276 351 319 310 318 323 348 325 321 314 311 330 328
241 249 269 278 286 304 313 313 328 18 14 0 356 354 355 360 358 345 347 351 245 271 170 211 173 135 205 240 255 293 107 49 101 354 345 15 291 303 305 337 312 285 290 282 303 291 315 314 304 295 280 316 317 311
231 240 250 259 271 290 300 295 283 205 359 352 350 348 349 353 350 327 345 7 290 297 283 121 159 178 159 195 234 247 27 184 307 278 301 300 299 164 307 316 291 306 311 288 280 273 335 298 321 320 314 306 300 297
223 232 234 243 258 278 286 254 216 239 313 335 340 342 344 344 340 290 325 32 15 320 341 84 190 145 184 202 222 214 226 248 261 252 262 289 314 296 287 296 325 4 355 318 310 320 315 308 311 304 296 293 290 291
220 224 226 231 244 262 255 233 216 242 293 316 325 331 335 334 326 254 203 144 9 346 275 221 92 165 171 211 199 200 213 224 254 295 305 294 45 273 292 312 75 243 240 244 274 280 285 278 291 292 292 290 300 299
215 216 215 221 234 235 231 226 224 244 279 302 311 316 316 317 296 307 6 25 356 300 265 236 181 145 190 195 165 164 184 215 268 290 237 304 196 244 262 290 332 331 290 298 302 297 281 281 296 298 300 296 292 280
212 207 204 213 226 228 218 216 224 242 275 295 301 304 305 294 257 239 114 227 252 273 256 266 161 182 216 197 184 203 211 200 183 316 197 251 141 19 256 319 338 324 311 301 302 305 290 287 288 288 285 283 286 281
212 202 198 205 216 217 211 212 230 252 281 294 292 288 240 226 234 61 106 156 251 293 283 241 244 134 179 140 295 174 255 220 107 231 180 275 136 197 355 338 321 316 313 317 311 303 313 328 316 307 301 299 307 287
211 199 198 202 204 207 199 207 240 281 297 300 253 226 195 71 343 186 186 212 201 186 221 260 97 169 271 124 136 244 214 248 224 108 344 235 66 29 7 343 322 324 332 331 332 336 330 323 326 322 312 305 290 291
207 197 197 199 195 191 188 197 229 306 257 238 238 337 41 45 241 235 253 239 161 219 193 222 236 201 126 266 111 269 275 177 240 114 269 123 203 351 345 321 323 332 343 349 345 338 339 331 325 320 318 317 311 306
202 192 193 195 189 182 179 180 192 250 345 337 330 232 221 216 211 251 212 188 227 238 162 198 149 242 120 224 243 171 255 204 243 77 230 211 43 327 344 333 339 345 342 344 349 352 339 327 326 321 318 316 314 316
194 185 184 187 184 167 164 163 158 102 152 238 234 216 215 169 242 228 192 200 217 181 168 175 166 178 158 229 214 228 223 215 172 219 222 157 344 325 353 343 349 353 352 352 350 354 344 336 333 334 331 335 333 333
183 177 180 182 167 152 151 143 138 126 249 241 205 264 225 190 231 212 271 313 47 237 155 184 140 212 161 189 227 238 91 261 229 231 220 174 161 330 352 351 352 356 2 358 355 356 348 352 346 349 344 347 349 345
168 170 170 159 146 145 138 126 113 102 268 235 222 240 219 240 252 276 286 273 228 266 167 173 172 242 171 196 231 231 194 243 232 192 176 105 200 275 335 1 356 0 1 360 1 349 0 359 8 357 355 354 357 350
157 136 141 144 145 139 134 123 80 53 243 262 243 255 229 266 253 247 244 250 227 217 239 251 189 216 213 212 203 206 202 218 130 88 15 151 221 256 332 10 3 1 360 4 4 351 358 4 7 9 3 4 4 1
129 117 151 141 139 135 138 116 140 191 234 233 231 232 256 288 273 275 280 263 197 213 224 206 217 207 151 226 204 229 232 72 31 335 269 126 223 278 286 30 19 3 4 8 6 5 4 358 3 12 15 19 20 15
100 147 146 138 133 130 109 260 206 200 231 239 246 215 215 266 272 261 231 234 227 222 243 235 306 221 228 255 207 157 136 220 13 343 41 244 233 256 268 308 30 6 7 11 4 7 14 8 11 17 15 15 24 21
147 151 154 155 159 126 149 182 230 248 239 265 255 246 251 258 249 254 267 243 249 284 283 218 239 238 235 229 275 73 290 305 304 350 320 229 236 250 256 213 203 276 14 6 0 5 12 18 13 17 14 16 23 24
139 150 154 155 186 162 170 201 211 241 240 196 236 240 234 240 250 237 226 225 213 213 209 226 240 248 233 249 264 266 285 255 295 310 308 234 194 218 269 194 200 136 275 26 49 25 3 15 18 18 22 13 21 27
114 152 151 134 115 258 282 224 204 239 276 250 246 231 253 218 235 225 224 195 213 225 227 230 245 253 263 323 277 268 268 250 277 286 256 272 319 302 285 199 189 209 306 26 13 53 22 12 4 11 17 24 25 21
103 143 113 150 234 211 240 234 290 7 247 262 242 222 255 239 227 214 215 212 230 234 236 254 250 262 248 228 243 227 259 263 253 270 240 227 251 295 272 207 196 212 156 23 23 24 32 22 359 9 15 5 24 41
134 133 151 195 209 194 249 198 232 205 244 233 211 227 218 225 214 152 228 229 240 239 249 252 258 264 263 269 233 233 234 237 259 261 241 251 268 298 235 190 207 220 222 128 38 21 44 351 46 356 15 15 11 23
161 180 195 193 201 236 183 206 201 233 223 228 228 245 213 210 164 225 243 236 228 203 210 219 217 219 206 225 226 216 210 221 247 229 241 231 177 126 285 194 179 182 37 120 167 74 50 32 342 22 23 16 25 23
124 196 164 221 208 230 217 205 205 206 241 212 236 245 206 201 232 227 235 223 201 217 216 198 212 217 238 198 199 193 162 221 230 199 145 192 75 157 181 183 166 104 160 167 145 114 52 4 32 25 33 25 0 32
193 178 204 193 198 223 234 254 211 222 237 233 225 254 229 244 242 243 174 106 236 220 178 174 188 201 225 236 254 148 140 203 231 200 143 187 326 316 160 168 175 148 175 261 351 21 68 32 30 12 32 60 29 10
208 188 199 192 273 270 266 240 254 266 239 216 217 207 223 234 236 79 76 200 115 111 120 101 60 297 267 207 147 124 102 138 76 7 64 95 122 60 118 170 201 93 131 139 163 51 55 79 64 42 37 41 34 26
245 256 214 188 215 222 257 266 218 231 234 237 241 215 230 246 57 27 359 83 123 145 144 140 22 344 284 203 180 156 151 143 91 69 69 55 207 181 150 124 101 54 98 90 102 107 82 74 74 60 57 47 45 31
224 197 215 221 217 229 233 230 244 235 262 275 277 266 323 71 155 333 68 63 195 216 228 226 176 214 203 187 206 171 139 166 197 200 218 221 200 183 188 170 162 165 144 141 60 43 57 40 48 74 72 56 45 36
216 194 214 215 221 229 227 216 257 265 267 279 297 291 271 260 270 292 268 234 237 231 236 248 250 242 267 271 193 179 154 185 249 244 246 226 225 181 175 184 185 175 170 172 167 144 106 202 159 205 225 259 290 352
164 196 229 238 253 250 259 264 262 263 264 262 262 263 265 272 278 277 253 254 252 248 245 239 241 242 251 243 210 188 183 202 231 243 282 282 263 161 175 190 195 176 178 189 197 198 183 212 231 227 224 265 340 268
210 208 227 249 258 256 261 260 250 246 251 245 245 245 248 247 250 262 245 234 240 239 235 241 255 255 236 221 245 232 166 215 215 215 308 231 228 186 193 197 189 181 180 198 207 211 192 241 276 295 291 243 268 293
219 226 236 266 253 234 208 219 241 251 234 243 247 245 240 239 256 259 256 229 246 244 243 245 234 228 229 217 231 228 185 206 119 57 345 330 325 241 190 188 186 192 194 202 189 179 187 209 281 352 297 272 270 282